Location: Miss�
(46.9484°N, 0.1922°W)
Time: 23:40:49
(UTC+00:00)

Cosmos 1727 Rocket - Pass Details

Date: 02 March 2021
Orbit: 961 x 996 km, 82.9° (Epoch: 14 April)

Event Time Altitude Azimuth Distance (km) Brightness Sun altitude
Rises 20:00:47 0° 353° (N) 3,658 7.3 -23.3°
Reaches altitude 10° 20:03:19 10° 356° (N) 2,708 6.5 -23.7°
Maximum altitude 20:09:29 67° 79° (E) 1,041 3.9 -24.7°
Enters shadow 20:10:41 55° 132° (SE) 1,152 4.0 -24.9°
